| time (UTC) | temp F | wind direction | speed MPH | gust MPH | rain 1hr in | rain 24hr in | rain mn in | humidity % | barometer mb |
| 20260505101845 | 53 | 99 | 0.0 | 0.0 | 0.00 | 0.00 | 0.00 | 93 | 1020.3 |
| 20260505101339 | 54 | 101 | 2.0 | 2.0 | 0.00 | 0.00 | 0.00 | 93 | 1020.2 |
| 20260505100836 | 53 | 90 | 0.0 | 0.0 | 0.00 | 0.00 | 0.00 | 92 | 1019.9 |
| 20260505100333 | 53 | 90 | 0.0 | 0.0 | 0.00 | 0.00 | 0.00 | 92 | 1019.9 |
| 20260505095828 | 53 | 90 | 0.0 | 0.0 | 0.00 | 0.00 | 0.00 | 92 | 1020.1 |
| 20260505095326 | 53 | 90 | 0.0 | 1.0 | 0.00 | 0.00 | 0.00 | 91 | 1019.8 |
| 20260505094822 | 54 | 144 | 0.0 | 0.0 | 0.00 | 0.00 | 0.00 | 91 | 1020.3 |
| 20260505094319 | 53 | 144 | 0.0 | 0.0 | 0.00 | 0.00 | 0.00 | 90 | 1020.1 |
| 20260505093814 | 54 | 144 | 0.0 | 0.0 | 0.00 | 0.00 | 0.00 | 90 | 1020.3 |
| 20260505093312 | 54 | 90 | 0.0 | 0.0 | 0.00 | 0.00 | 0.00 | 90 | 1020.0 |
| 20260505092808 | 54 | 90 | 0.0 | 1.0 | 0.00 | 0.00 | 0.00 | 89 | 1020.4 |
| 20260505092307 | 54 | 99 | 0.0 | 0.0 | 0.00 | 0.00 | 0.00 | 89 | 1020.2 |
| 20260505091804 | 55 | 99 | 0.0 | 0.0 | 0.00 | 0.00 | 0.00 | 88 | 1019.8 |
| 20260505091302 | 55 | 180 | 0.0 | 1.0 | 0.00 | 0.00 | 0.00 | 88 | 1020.2 |
| 20260505090800 | 55 | 160 | 0.0 | 1.0 | 0.00 | 0.00 | 0.00 | 87 | 1020.3 |
| 20260505090258 | 55 | 90 | 0.0 | 0.0 | 0.00 | 0.00 | 0.00 | 87 | 1020.1 |
| 20260505085755 | 55 | 90 | 0.0 | 1.0 | 0.00 | 0.00 | 0.00 | 86 | 1020.1 |
| 20260505085253 | 56 | 99 | 0.0 | 0.0 | 0.00 | 0.00 | 0.00 | 86 | 1020.3 |
| 20260505084750 | 56 | 81 | 0.0 | 2.0 | 0.00 | 0.00 | 0.00 | 86 | 1020.1 |
| 20260505084249 | 56 | 90 | 0.0 | 1.0 | 0.00 | 0.00 | 0.00 | 85 | 1020.1 |
| 20260505083746 | 56 | 166 | 0.0 | 1.0 | 0.00 | 0.00 | 0.00 | 85 | 1019.9 |
| 20260505083242 | 57 | 180 | 0.0 | 0.0 | 0.00 | 0.00 | 0.00 | 84 | 1019.9 |
| 20260505082739 | 57 | 209 | 0.0 | 1.0 | 0.00 | 0.00 | 0.00 | 84 | 1019.9 |
| 20260505082236 | 57 | 174 | 0.0 | 2.0 | 0.00 | 0.00 | 0.00 | 83 | 1019.8 |
| 20260505081732 | 58 | 202 | 0.0 | 2.0 | 0.00 | 0.00 | 0.00 | 83 | 1019.8 |
| 20260505081229 | 58 | 187 | 0.0 | 3.0 | 0.00 | 0.00 | 0.00 | 83 | 1019.8 |
| 20260505080726 | 58 | 209 | 0.0 | 2.0 | 0.00 | 0.00 | 0.00 | 82 | 1019.8 |
| 20260505080221 | 58 | 160 | 0.0 | 2.0 | 0.00 | 0.00 | 0.00 | 82 | 1019.9 |
| 20260505075717 | 59 | 180 | 0.0 | 2.0 | 0.00 | 0.00 | 0.00 | 81 | 1019.9 |
| 20260505075215 | 59 | 237 | 3.0 | 5.0 | 0.00 | 0.00 | 0.00 | 80 | 1019.7 |
| 20260505074712 | 59 | 209 | 0.0 | 5.0 | 0.00 | 0.00 | 0.00 | 80 | 1019.5 |
| 20260505074209 | 59 | 194 | 3.0 | 3.0 | 0.00 | 0.00 | 0.00 | 80 | 1019.8 |
| 20260505073707 | 59 | 241 | 3.0 | 5.0 | 0.00 | 0.00 | 0.00 | 80 | 1019.7 |
| 20260505073204 | 58 | 203 | 0.0 | 2.0 | 0.00 | 0.00 | 0.00 | 80 | 1019.7 |
| 20260505072700 | 59 | 209 | 1.0 | 2.0 | 0.00 | 0.00 | 0.00 | 80 | 1019.6 |
| 20260505072156 | 59 | 202 | 0.0 | 3.0 | 0.00 | 0.00 | 0.00 | 79 | 1019.6 |
| 20260505071652 | 59 | 157 | 0.0 | 4.0 | 0.00 | 0.00 | 0.00 | 79 | 1019.6 |
| 20260505071150 | 59 | 201 | 2.0 | 5.0 | 0.00 | 0.00 | 0.00 | 78 | 1019.5 |
| 20260505070647 | 59 | 200 | 3.0 | 4.0 | 0.00 | 0.00 | 0.00 | 78 | 1019.6 |
| 20260505070143 | 60 | 215 | 1.0 | 5.0 | 0.00 | 0.00 | 0.00 | 78 | 1019.6 |
| 20260505065639 | 59 | 209 | 2.0 | 4.0 | 0.00 | 0.00 | 0.00 | 78 | 1019.6 |
| 20260505065136 | 59 | 180 | 1.0 | 2.0 | 0.00 | 0.00 | 0.00 | 78 | 1019.8 |
| 20260505064633 | 60 | 209 | 3.0 | 4.0 | 0.00 | 0.00 | 0.00 | 78 | 1019.7 |
| 20260505064131 | 59 | 240 | 1.0 | 3.0 | 0.00 | 0.00 | 0.00 | 77 | 1019.9 |
| 20260505063628 | 59 | 189 | 3.0 | 3.0 | 0.00 | 0.00 | 0.00 | 77 | 1020.0 |
| 20260505063124 | 60 | 177 | 3.0 | 3.0 | 0.00 | 0.00 | 0.00 | 77 | 1019.7 |
| 20260505062621 | 60 | 185 | 0.0 | 4.0 | 0.00 | 0.00 | 0.00 | 76 | 1019.9 |
| 20260505062118 | 60 | 176 | 2.0 | 3.0 | 0.00 | 0.00 | 0.00 | 76 | 1019.8 |
| 20260505061615 | 60 | 197 | 2.0 | 5.0 | 0.00 | 0.00 | 0.00 | 76 | 1020.0 |
| 20260505061113 | 60 | 194 | 0.0 | 2.0 | 0.00 | 0.00 | 0.00 | 75 | 1020.1 |
| 20260505060611 | 60 | 166 | 0.0 | 3.0 | 0.00 | 0.00 | 0.00 | 75 | 1019.9 |
| 20260505060107 | 60 | 227 | 3.0 | 3.0 | 0.00 | 0.00 | 0.00 | 75 | 1020.1 |
| 20260505055602 | 60 | 90 | 0.0 | 2.0 | 0.00 | 0.00 | 0.00 | 75 | 1020.0 |
| 20260505055059 | 60 | 180 | 0.0 | 5.0 | 0.00 | 0.00 | 0.00 | 74 | 1020.1 |
| 20260505054556 | 61 | 180 | 3.0 | 3.0 | 0.00 | 0.00 | 0.00 | 74 | 1020.0 |
| 20260505054055 | 61 | 221 | 0.0 | 3.0 | 0.00 | 0.00 | 0.00 | 73 | 1019.9 |
| 20260505053551 | 61 | 229 | 3.0 | 4.0 | 0.00 | 0.00 | 0.00 | 73 | 1020.1 |
| 20260505053048 | 61 | 229 | 0.0 | 3.0 | 0.00 | 0.00 | 0.00 | 73 | 1020.0 |
| 20260505052545 | 61 | 194 | 4.0 | 4.0 | 0.00 | 0.00 | 0.00 | 73 | 1020.2 |
| 20260505052043 | 61 | 231 | 2.0 | 4.0 | 0.00 | 0.00 | 0.00 | 73 | 1020.1 |
| 20260505051539 | 61 | 185 | 0.0 | 5.0 | 0.00 | 0.00 | 0.00 | 72 | 1020.2 |
| 20260505051038 | 61 | 199 | 3.0 | 4.0 | 0.00 | 0.00 | 0.00 | 72 | 1020.1 |
| 20260505050535 | 62 | 257 | 0.0 | 5.0 | 0.00 | 0.00 | 0.00 | 72 | 1020.2 |
| 20260505041503 | 62 | 180 | 0.0 | 4.0 | 0.00 | 0.00 | 0.00 | 71 | 1020.1 |
| 20260505041001 | 62 | 195 | 2.0 | 3.0 | 0.00 | 0.00 | 0.00 | 72 | 1020.3 |
| 20260505040457 | 62 | 180 | 1.0 | 4.0 | 0.00 | 0.00 | 0.00 | 71 | 1020.4 |
| 20260505035954 | 62 | 162 | 2.0 | 4.0 | 0.00 | 0.00 | 0.00 | 71 | 1020.2 |
| 20260505035450 | 62 | 180 | 0.0 | 2.0 | 0.00 | 0.00 | 0.00 | 71 | 1020.3 |
| 20260505034948 | 62 | 195 | 0.0 | 4.0 | 0.00 | 0.00 | 0.00 | 71 | 1020.2 |
| 20260505034444 | 62 | 187 | 1.0 | 5.0 | 0.00 | 0.00 | 0.00 | 70 | 1020.2 |
| 20260505033941 | 63 | 163 | 3.0 | 3.0 | 0.00 | 0.00 | 0.00 | 70 | 1020.3 |
| 20260505033438 | 62 | 195 | 1.0 | 4.0 | 0.00 | 0.00 | 0.00 | 70 | 1020.3 |
| 20260505032936 | 62 | 203 | 0.0 | 3.0 | 0.00 | 0.00 | 0.00 | 69 | 1020.1 |
| 20260505032433 | 62 | 241 | 2.0 | 2.0 | 0.00 | 0.00 | 0.00 | 69 | 1020.2 |
| 20260505031929 | 63 | 157 | 0.0 | 2.0 | 0.00 | 0.00 | 0.00 | 68 | 1020.3 |
| 20260505031427 | 63 | 251 | 0.0 | 4.0 | 0.00 | 0.00 | 0.00 | 67 | 1020.5 |
| 20260505030923 | 63 | 220 | 2.0 | 2.0 | 0.00 | 0.00 | 0.00 | 67 | 1020.3 |
| 20260505030419 | 63 | 279 | 0.0 | 2.0 | 0.00 | 0.00 | 0.00 | 67 | 1020.3 |
| 20260505025915 | 63 | 187 | 1.0 | 1.0 | 0.00 | 0.00 | 0.00 | 67 | 1020.3 |
| 20260505025412 | 63 | 216 | 2.0 | 3.0 | 0.00 | 0.00 | 0.00 | 68 | 1020.0 |
| 20260505024911 | 62 | 254 | 2.0 | 3.0 | 0.00 | 0.00 | 0.00 | 70 | 1020.4 |
| 20260505024408 | 61 | 232 | 2.0 | 3.0 | 0.00 | 0.00 | 0.00 | 73 | 1020.3 |
| 20260505023905 | 60 | 325 | 0.0 | 1.0 | 0.00 | 0.00 | 0.00 | 77 | 1020.3 |
| 20260505023402 | 61 | 165 | 2.0 | 2.0 | 0.00 | 0.00 | 0.00 | 76 | 1020.1 |
| 20260505022859 | 61 | 270 | 0.0 | 0.0 | 0.00 | 0.00 | 0.00 | 72 | 1020.0 |
| 20260505022356 | 61 | 270 | 0.0 | 0.0 | 0.00 | 0.00 | 0.00 | 76 | 1020.0 |
| 20260505021854 | 60 | 270 | 0.0 | 0.0 | 0.00 | 0.00 | 0.00 | 77 | 1020.0 |
| 20260505021350 | 60 | 270 | 0.0 | 0.0 | 0.00 | 0.00 | 0.00 | 77 | 1019.8 |
| 20260505020846 | 61 | 270 | 0.0 | 0.0 | 0.00 | 0.00 | 0.00 | 77 | 1019.8 |
| 20260505020341 | 61 | 270 | 0.0 | 0.0 | 0.00 | 0.00 | 0.00 | 76 | 1019.7 |
| 20260505015838 | 61 | 270 | 0.0 | 0.0 | 0.00 | 0.00 | 0.00 | 75 | 1019.7 |
| 20260505015336 | 62 | 270 | 0.0 | 0.0 | 0.00 | 0.00 | 0.00 | 73 | 1019.7 |
| 20260505014833 | 62 | 270 | 0.0 | 0.0 | 0.00 | 0.00 | 0.00 | 73 | 1019.6 |
| 20260505014330 | 63 | 270 | 0.0 | 0.0 | 0.00 | 0.00 | 0.00 | 72 | 1019.2 |
| 20260505013826 | 64 | 270 | 0.0 | 0.0 | 0.00 | 0.00 | 0.00 | 71 | 1019.4 |
| 20260505013324 | 64 | 151 | 0.0 | 0.0 | 0.00 | 0.00 | 0.00 | 69 | 1019.6 |
| 20260505012822 | 64 | 151 | 0.0 | 0.0 | 0.00 | 0.00 | 0.00 | 70 | 1019.2 |
| 20260505012319 | 65 | 151 | 0.0 | 0.0 | 0.00 | 0.00 | 0.00 | 67 | 1019.2 |
| 20260505011815 | 65 | 151 | 0.0 | 0.0 | 0.00 | 0.00 | 0.00 | 64 | 1019.3 |
| 20260505011312 | 65 | 151 | 0.0 | 0.0 | 0.00 | 0.00 | 0.00 | 59 | 1019.1 |
| 20260505010808 | 66 | 151 | 0.0 | 0.0 | 0.00 | 0.00 | 0.00 | 58 | 1019.4 |
| 20260505010304 | 67 | 151 | 0.0 | 0.0 | 0.00 | 0.00 | 0.00 | 56 | 1019.3 |
| 20260505005801 | 67 | 151 | 0.0 | 0.0 | 0.00 | 0.00 | 0.00 | 56 | 1019.1 |
| 20260505005258 | 68 | 151 | 0.0 | 1.0 | 0.00 | 0.00 | 0.00 | 55 | 1019.2 |
| 20260505004755 | 68 | 90 | 0.0 | 0.0 | 0.00 | 0.00 | 0.00 | 53 | 1018.9 |
| 20260505004251 | 68 | 90 | 0.0 | 0.0 | 0.00 | 0.00 | 0.00 | 53 | 1019.1 |
| 20260505003748 | 69 | 169 | 0.0 | 0.0 | 0.00 | 0.00 | 0.00 | 51 | 1018.7 |
| 20260505003246 | 69 | 169 | 0.0 | 0.0 | 0.00 | 0.00 | 0.00 | 50 | 1018.9 |
| 20260505002742 | 69 | 169 | 0.0 | 0.0 | 0.00 | 0.00 | 0.00 | 49 | 1019.0 |
| 20260505002240 | 70 | 169 | 0.0 | 0.0 | 0.00 | 0.00 | 0.00 | 47 | 1019.1 |
| 20260505001737 | 71 | 169 | 0.0 | 0.0 | 0.00 | 0.00 | 0.00 | 46 | 1019.1 |
| 20260505001235 | 71 | 169 | 0.0 | 0.0 | 0.00 | 0.00 | 0.00 | 45 | 1018.8 |
| 20260505000731 | 72 | 169 | 0.0 | 2.0 | 0.00 | 0.00 | 0.00 | 44 | 1018.7 |
| 20260505000229 | 73 | 186 | 1.0 | 1.0 | 0.00 | 0.00 | 0.00 | 44 | 1018.7 |
| 20260504235725 | 73 | 99 | 0.0 | 1.0 | 0.00 | 0.00 | 0.00 | 44 | 1018.8 |
| 20260504235221 | 73 | 209 | 0.0 | 2.0 | 0.00 | 0.00 | 0.00 | 44 | 1018.8 |
| 20260504234719 | 73 | 203 | 0.0 | 2.0 | 0.00 | 0.00 | 0.00 | 43 | 1018.8 |
| 20260504234216 | 74 | 254 | 0.0 | 3.0 | 0.00 | 0.00 | 0.00 | 42 | 1018.7 |
| 20260504233712 | 74 | 160 | 0.0 | 3.0 | 0.00 | 0.00 | 0.00 | 41 | 1018.6 |
| 20260504233208 | 74 | 187 | 0.0 | 2.0 | 0.00 | 0.00 | 0.00 | 40 | 1018.5 |
| 20260504232706 | 75 | 216 | 2.0 | 4.0 | 0.00 | 0.00 | 0.00 | 39 | 1018.5 |
| 20260504232203 | 75 | 180 | 0.0 | 3.0 | 0.00 | 0.00 | 0.00 | 39 | 1018.5 |
| 20260504231659 | 76 | 190 | 3.0 | 4.0 | 0.00 | 0.00 | 0.00 | 36 | 1018.5 |
| 20260504231155 | 76 | 206 | 0.0 | 5.0 | 0.00 | 0.00 | 0.00 | 36 | 1018.9 |
| 20260504230652 | 77 | 180 | 2.0 | 5.0 | 0.00 | 0.00 | 0.00 | 36 | 1018.5 |
| 20260504230151 | 77 | 237 | 2.0 | 5.0 | 0.00 | 0.00 | 0.00 | 36 | 1018.6 |
| 20260504225649 | 77 | 236 | 4.0 | 5.0 | 0.00 | 0.00 | 0.00 | 37 | 1018.9 |
| 20260504225144 | 77 | 180 | 0.0 | 5.0 | 0.00 | 0.00 | 0.00 | 38 | 1018.7 |
| 20260504224642 | 77 | 203 | 0.0 | 5.0 | 0.00 | 0.00 | 0.00 | 38 | 1018.6 |
| 20260504224138 | 77 | 151 | 1.0 | 7.0 | 0.00 | 0.00 | 0.00 | 38 | 1018.5 |
| 20260504223636 | 77 | 239 | 2.0 | 5.0 | 0.00 | 0.00 | 0.00 | 38 | 1018.8 |
| 20260504223131 | 77 | 206 | 3.0 | 5.0 | 0.00 | 0.00 | 0.00 | 37 | 1018.8 |
| 20260504222628 | 77 | 90 | 3.0 | 11.0 | 0.00 | 0.00 | 0.00 | 38 | 1018.9 |
| 20260504222125 | 77 | 188 | 3.0 | 13.0 | 0.00 | 0.00 | 0.00 | 37 | 1018.6 |
| 20260504221623 | 77 | 225 | 4.0 | 10.0 | 0.00 | 0.00 | 0.00 | 37 | 1018.7 |
| 20260504221120 | 78 | 205 | 5.0 | 9.0 | 0.00 | 0.00 | 0.00 | 36 | 1018.8 |
| 20260504220616 | 79 | 185 | 5.0 | 7.0 | 0.00 | 0.00 | 0.00 | 35 | 1018.8 |
| 20260504220114 | 80 | 186 | 5.0 | 7.0 | 0.00 | 0.00 | 0.00 | 35 | 1018.6 |
| 20260504215609 | 79 | 198 | 4.0 | 7.0 | 0.00 | 0.00 | 0.00 | 35 | 1018.8 |
| 20260504215107 | 78 | 176 | 5.0 | 7.0 | 0.00 | 0.00 | 0.00 | 34 | 1018.5 |
| 20260504214603 | 78 | 193 | 6.0 | 7.0 | 0.00 | 0.00 | 0.00 | 34 | 1018.6 |
| 20260504214059 | 78 | 202 | 4.0 | 6.0 | 0.00 | 0.00 | 0.00 | 35 | 1018.4 |
| 20260504213556 | 79 | 169 | 6.0 | 8.0 | 0.00 | 0.00 | 0.00 | 35 | 1018.6 |
| 20260504213053 | 80 | 198 | 2.0 | 7.0 | 0.00 | 0.00 | 0.00 | 33 | 1018.5 |
| 20260504212549 | 81 | 200 | 4.0 | 8.0 | 0.00 | 0.00 | 0.00 | 33 | 1018.5 |
| 20260504212046 | 81 | 252 | 7.0 | 10.0 | 0.00 | 0.00 | 0.00 | 32 | 1018.6 |
| 20260504211543 | 81 | 207 | 9.0 | 9.0 | 0.00 | 0.00 | 0.00 | 32 | 1018.3 |
| 20260504211040 | 82 | 148 | 7.0 | 10.0 | 0.00 | 0.00 | 0.00 | 32 | 1018.5 |
| 20260504210537 | 82 | 221 | 8.0 | 8.0 | 0.00 | 0.00 | 0.00 | 31 | 1018.2 |
| 20260504210034 | 81 | 222 | 7.0 | 11.0 | 0.00 | 0.00 | 0.00 | 30 | 1018.6 |
| 20260504205532 | 82 | 234 | 5.0 | 7.0 | 0.00 | 0.00 | 0.00 | 31 | 1018.3 |
| 20260504205029 | 82 | 244 | 3.0 | 13.0 | 0.00 | 0.00 | 0.00 | 30 | 1018.5 |
| 20260504204527 | 81 | 213 | 4.0 | 9.0 | 0.00 | 0.00 | 0.00 | 33 | 1018.6 |
| 20260504204026 | 81 | 231 | 0.0 | 11.0 | 0.00 | 0.00 | 0.00 | 31 | 1018.7 |
| 20260504203524 | 82 | 206 | 2.0 | 7.0 | 0.00 | 0.00 | 0.00 | 31 | 1018.8 |
| 20260504203021 | 82 | 212 | 2.0 | 8.0 | 0.00 | 0.00 | 0.00 | 34 | 1018.8 |
| 20260504202516 | 82 | 208 | 6.0 | 6.0 | 0.00 | 0.00 | 0.00 | 31 | 1018.8 |
| 20260504202013 | 82 | 0 | 0.0 | 3.0 | 0.00 | 0.00 | 0.00 | 28 | 1018.6 |
| 20260504201510 | 81 | 162 | 4.0 | 7.0 | 0.00 | 0.00 | 0.00 | 30 | 1019.0 |
| 20260504201008 | 80 | 258 | 2.0 | 10.0 | 0.00 | 0.00 | 0.00 | 28 | 1018.9 |
| 20260504200504 | 82 | 188 | 0.0 | 5.0 | 0.00 | 0.00 | 0.00 | 28 | 1018.9 |
| 20260504200001 | 83 | 292 | 2.0 | 5.0 | 0.00 | 0.00 | 0.00 | 29 | 1018.9 |
| 20260504195457 | 81 | 219 | 4.0 | 8.0 | 0.00 | 0.00 | 0.00 | 27 | 1019.0 |
| 20260504194954 | 81 | 210 | 2.0 | 8.0 | 0.00 | 0.00 | 0.00 | 30 | 1019.1 |
| 20260504194450 | 81 | 264 | 3.0 | 7.0 | 0.00 | 0.00 | 0.00 | 31 | 1019.3 |
| 20260504193946 | 82 | 81 | 2.0 | 7.0 | 0.00 | 0.00 | 0.00 | 30 | 1019.2 |
| 20260504193443 | 80 | 254 | 4.0 | 8.0 | 0.00 | 0.00 | 0.00 | 31 | 1019.5 |
| 20260504192942 | 81 | 262 | 5.0 | 9.0 | 0.00 | 0.00 | 0.00 | 29 | 1019.1 |
| 20260504192438 | 80 | 72 | 0.0 | 5.0 | 0.00 | 0.00 | 0.00 | 33 | 1019.3 |
| 20260504191938 | 81 | 144 | 2.0 | 3.0 | 0.00 | 0.00 | 0.00 | 31 | 1019.4 |
| 20260504191435 | 81 | 94 | 3.0 | 4.0 | 0.00 | 0.00 | 0.00 | 33 | 1019.6 |
| 20260504190930 | 79 | 12 | 2.0 | 4.0 | 0.00 | 0.00 | 0.00 | 30 | 1019.5 |
| 20260504190426 | 80 | 278 | 4.0 | 7.0 | 0.00 | 0.00 | 0.00 | 32 | 1019.5 |
| 20260504185923 | 80 | 339 | 0.0 | 4.0 | 0.00 | 0.00 | 0.00 | 32 | 1019.6 |
| 20260504185420 | 79 | 195 | 4.0 | 8.0 | 0.00 | 0.00 | 0.00 | 30 | 1019.9 |
| 20260504184916 | 79 | 270 | 4.0 | 8.0 | 0.00 | 0.00 | 0.00 | 32 | 1019.9 |
| 20260504184412 | 80 | 255 | 3.0 | 5.0 | 0.00 | 0.00 | 0.00 | 32 | 1020.1 |
| 20260504183908 | 79 | 207 | 3.0 | 8.0 | 0.00 | 0.00 | 0.00 | 32 | 1020.3 |
| 20260504183405 | 80 | 145 | 7.0 | 8.0 | 0.00 | 0.00 | 0.00 | 36 | 1020.2 |
| 20260504182903 | 79 | 227 | 3.0 | 5.0 | 0.00 | 0.00 | 0.00 | 32 | 1020.2 |
| 20260504182400 | 78 | 225 | 2.0 | 4.0 | 0.00 | 0.00 | 0.00 | 32 | 1020.2 |
| 20260504181856 | 78 | 213 | 3.0 | 8.0 | 0.00 | 0.00 | 0.00 | 34 | 1020.3 |
| 20260504181354 | 78 | 251 | 2.0 | 8.0 | 0.00 | 0.00 | 0.00 | 33 | 1020.5 |
| 20260504180853 | 78 | 272 | 6.0 | 8.0 | 0.00 | 0.00 | 0.00 | 34 | 1020.5 |
| 20260504180351 | 79 | 261 | 2.0 | 4.0 | 0.00 | 0.00 | 0.00 | 37 | 1020.3 |
| 20260504175849 | 79 | 105 | 2.0 | 7.0 | 0.00 | 0.00 | 0.00 | 36 | 1020.8 |
| 20260504175345 | 77 | 16 | 0.0 | 7.0 | 0.00 | 0.00 | 0.00 | 33 | 1020.8 |
| 20260504174844 | 77 | 200 | 3.0 | 5.0 | 0.00 | 0.00 | 0.00 | 34 | 1020.9 |
| 20260504174341 | 77 | 238 | 5.0 | 9.0 | 0.00 | 0.00 | 0.00 | 35 | 1020.9 |
| 20260504173838 | 77 | 217 | 5.0 | 8.0 | 0.00 | 0.00 | 0.00 | 35 | 1020.8 |
| 20260504173334 | 77 | 291 | 1.0 | 8.0 | 0.00 | 0.00 | 0.00 | 35 | 1021.0 |
| 20260504172831 | 78 | 259 | 4.0 | 5.0 | 0.00 | 0.00 | 0.00 | 32 | 1020.8 |
| 20260504172328 | 78 | 174 | 4.0 | 5.0 | 0.00 | 0.00 | 0.00 | 36 | 1020.9 |
| 20260504171824 | 77 | 225 | 5.0 | 5.0 | 0.00 | 0.00 | 0.00 | 33 | 1020.9 |
| 20260504171321 | 79 | 319 | 0.0 | 5.0 | 0.00 | 0.00 | 0.00 | 34 | 1021.0 |
| 20260504170818 | 78 | 240 | 1.0 | 3.0 | 0.00 | 0.00 | 0.00 | 38 | 1021.0 |
| 20260504170315 | 78 | 259 | 2.0 | 3.0 | 0.00 | 0.00 | 0.00 | 37 | 1021.2 |
| 20260504160233 | 74 | 219 | 3.0 | 13.0 | 0.00 | 0.00 | 0.00 | 38 | 1021.9 |
| 20260504150659 | 73 | 213 | 2.0 | 5.0 | 0.00 | 0.00 | 0.00 | 49 | 1022.4 |
| 20260504150156 | 71 | 244 | 5.0 | 8.0 | 0.00 | 0.00 | 0.00 | 47 | 1022.4 |
| 20260504141124 | 70 | 243 | 0.0 | 4.0 | 0.00 | 0.00 | 0.00 | 51 | 1022.5 |
| 20260504140621 | 70 | 26 | 0.0 | 4.0 | 0.00 | 0.00 | 0.00 | 57 | 1022.5 |
| 20260504140117 | 68 | 63 | 0.0 | 3.0 | 0.00 | 0.00 | 0.00 | 56 | 1022.9 |
| 20260504130545 | 62 | 203 | 0.0 | 2.0 | 0.00 | 0.00 | 0.00 | 72 | 1022.8 |
| 20260504110433 | 44 | 90 | 0.0 | 0.0 | 0.00 | 0.00 | 0.00 | 98 | 1022.6 |